Hourly Data Report for November 27, 2018

CARBERRY CS
MANITOBA
Current Station Operator: ECCC - MSC

49°54'20.900" N
99°21'26.800" W
383.50 m
5010547
71170
WZE

Download Data

Hourly Data (November 2018)
Hourly Data Report for November 27, 2018
TIME
LST
Temp Definition
°C
Dew Point Definition
°C
Rel Hum Definition
%
Precip. Amount Definition
mm

Wind Dir Definition
10's deg

Wind Spd Definition
km/h
Visibility Definition
km
Stn Press Definition
kPa
Hmdx Definition


Wind Chill Definition


Weather Definition


00:00 -24.0 -26.7 79 0.0 27 8   97.72   -31 LegendNANA
01:00 -23.7 -26.4 78 0.0 27 1   97.61   -25 LegendNANA
02:00 -25.3 -28.3 76 0.0 26 5   97.65   -30 LegendNANA
03:00 -24.8 -27.4 79 0.0 27 5   97.65   -30 LegendNANA
04:00 -24.7 -27.5 78 0.0 27 3   97.58   -28 LegendNANA
05:00 -25.3 -28.1 77 0.0 25 3   97.54   -28 LegendNANA
06:00 -24.8 -27.6 77 0.0 25 2   97.48   -27 LegendNANA
07:00 -24.4 -27.2 78 0.0 12 3   97.41   -27 LegendNANA
08:00 -21.5 -24.0 80 0.0 20 3   97.36   -24 LegendNANA
09:00 -19.7 -22.2 81 0.0 14 3   97.30   -22 LegendNANA
10:00 -17.0 -19.0 84 0.0 12 8   97.27   -23 LegendNANA
11:00 -16.1 -18.3 83 0.0 14 7   97.26   -21 LegendNANA
12:00 -14.0 -16.2 83 0.0 14 9   97.13   -20 LegendNANA
13:00 -12.4 -15.9 75 0.0 14 16   97.03   -20 LegendNANA
14:00 -11.8 -15.4 74 0.0 12 17   96.97   -19 LegendNANA
15:00 -11.3 -15.1 73 0.0 12 15   96.86   -18 LegendNANA
16:00 -11.2 -14.7 75 0.0 11 16   96.78   -18 LegendNANA
17:00 -11.3 -14.7 76 0.0 10 18   96.74   -19 LegendNANA
18:00 -11.3 -14.5 77 0.0 11 14   96.70   -18 LegendNANA
19:00 -11.2 -14.3 78 0.0 11 17   96.64   -19 LegendNANA
20:00 -10.9 -13.9 78 0.0 12 15   96.56   -18 LegendNANA
21:00 -10.5 -13.5 78 0.0 11 14   96.53   -17 LegendNANA
22:00 -10.2 -13.2 79 0.0 10 17   96.48   -17 LegendNANA
23:00 -9.8 -13.2 76 0.0 11 16   96.38   -17 LegendNANA

Notes on Data Quality.

Legend

  • E = Estimated
  • M = Missing
  • NA = Not Available*
  • [empty] = Indicates an unobserved value
Date modified: